This demonstration page uses our WeatherBlox Daily Observations layout. Learn more.

Left ArrowRight Arrow

39.08367, -84.50855

Hourly Observations for August 29, 2020

Temp ( °F °C ) Dew Point ( °F °C ) Humidity (%) Winds ( mph kmh ) Pressure ( in mb ) Visibility ( mi km ) Precip ( " mm )
12:53 am 00:53 Clear 72 22.2 70 21.1 94 94 S 8 13 29.68 1005 10 16 N/A
1:14 am 01:14 Partly Cloudy 72 22.2 70 21.1 94 94 SW 5 7 29.69 1006 10 16 N/A
1:25 am 01:25 Mostly Cloudy 72 22.2 70 21.1 94 94 W 3 6 29.70 1006 10 16 N/A
1:32 am 01:32 Mostly Cloudy 72 22.2 70 21.1 94 94 N N/A 29.70 1006 10 16 N/A
1:53 am 01:53 Mostly Cloudy 72 22.2 69 20.6 91 91 N N/A 29.70 1006 10 16 N/A
2:25 am 02:25 Partly Cloudy 71 21.7 70 21.1 96 96 N N/A 29.69 1005 8 13 N/A
2:53 am 02:53 Mostly Cloudy 71 21.7 69 20.6 94 94 N N/A 29.69 1005 10 16 N/A
3:53 am 03:53 Cloudy 72 22.2 70 21.1 94 94 N N/A 29.67 1005 10 16 N/A
4:53 am 04:53 Cloudy 71 21.7 70 21.1 96 96 N N/A 29.66 1004 10 16 N/A
5:53 am 05:53 Cloudy 73 22.8 70 21.1 90 90 NW 5 7 29.67 1005 10 16 N/A
6:09 am 06:09 Cloudy 73 22.8 69 20.6 87 87 NW 3 6 29.67 1005 10 16 N/A
6:53 am 06:53 Cloudy 72 22.2 69 20.6 91 91 W 8 13 29.70 1006 10 16 N/A
7:53 am 07:53 Mostly Cloudy 72 22.2 69 20.6 91 91 VRB 3 6 29.70 1006 10 16 N/A
8:53 am 08:53 Cloudy 73 22.8 70 21.1 90 90 VRB 7 11 29.72 1007 10 16 N/A
9:53 am 09:53 Cloudy 75 23.9 70 21.1 84 84 VRB 6 9 29.73 1007 10 16 N/A
10:53 am 10:53 Cloudy 76 24.4 70 21.1 82 82 SW 9 15 29.74 1007 10 16 N/A
11:53 am 11:53 Cloudy 77 25 70 21.1 79 79 VRB 7 11 29.75 1007 10 16 N/A
12:53 pm 12:53 Mostly Cloudy 82 27.8 70 21.1 67 67 VRB 7 11 29.75 1007 10 16 N/A
1:53 pm 13:53 Mostly Cloudy 83 28.3 68 20 61 61 WNW 12 19 29.75 1007 10 16 N/A
2:53 pm 14:53 Mostly Cloudy 86 30 64 17.8 48 48 W 10 17 29.75 1008 10 16 N/A
3:53 pm 15:53 Mostly Cloudy 86 30 63 17.2 46 46 NW 10 17 29.75 1008 10 16 N/A
4:53 pm 16:53 Mostly Sunny 84 28.9 62 16.7 48 48 NW 13 20 29.74 1007 10 16 N/A
5:53 pm 17:53 Mostly Sunny 83 28.3 61 16.1 48 48 NNW 7 11 29.75 1007 10 16 N/A
6:53 pm 18:53 Sunny 83 28.3 58 14.4 43 43 WNW 8 13 29.75 1008 10 16 N/A
7:53 pm 19:53 Sunny 80 26.7 59 15 49 49 NW 7 11 29.77 1008 10 16 N/A
8:53 pm 20:53 Clear 79 26.1 60 15.6 52 52 NW 5 7 29.79 1009 10 16 N/A
9:53 pm 21:53 Partly Cloudy 77 25 62 16.7 60 60 N 6 9 29.81 1009 10 16 N/A
10:53 pm 22:53 Clear 76 24.4 58 14.4 54 54 N 12 19 29.82 1010 10 16 N/A
11:53 pm 23:53 Clear 73 22.8 57 13.9 57 57 N 8 13 29.83 1010 10 16 N/A

Powered by AerisWeather